Weather History for Vancouver, BC

Change the Weather History Date:

Friday, December 7, 2012

  Actual Average Record
Temperature  
Mean Temperature 38 °F -  
Max Temperature 43 °F 44 °F 48 °F (2010)
Min Temperature 34 °F 35 °F 14 °F (2013)
Degree Days  
Heating Degree Days 26    
Moisture  
Dew Point 35 °F    
Average Humidity 80    
Maximum Humidity 93    
Minimum Humidity 56    
Precipitation  
Precipitation 0.08 in - - ()
Sea Level Pressure  
Sea Level Pressure 29.99 in    
Wind  
Wind Speed 11 mph ()    
Max Wind Speed 30 mph    
Max Gust Speed 36 mph    
Visibility 12.4 miles    
Events Rain    
Averages and records for this station are not official NWS values.
T = Trace of Precipitation, MM = Missing Value Source: Averaged Metar Reports

Daily Weather History Graph

Daily Weather History Graph

Search for Another Location

Airport:

Trip Planner

Search our weather history database for the weather conditions in past years. The results will help you decide how hot, cold, wet, or windy it might be!

Date:

Astronomy

Dec. 07, 2012 Rise Set
Actual Time 7:53 AM PST 4:14 PM PST
Civil Twilight 7:16 AM PST 4:51 PM PST
Nautical Twilight 6:36 AM PST 5:32 PM PST
Astronomical Twilight 5:57 AM PST 6:10 PM PST
Moon 12:49 AM PST (12/7) 12:41 PM PST (12/7)
Length of Visible Light 9h 35m
Length of Day
8h 20m
Last Quarter, 37% of the Moon is Illuminated
Dec 7
Last Quarter
Dec 13
New
Dec 19
First Quarter
Dec 28
Full
Jan 4
Last Quarter

Hourly Weather History & Observations

Time (PST) Temp. Windchill Dew Point Humidity Pressure Visibility Wind Dir Wind Speed Gust Speed Precip Events Conditions
12:00 AM 41.0 °F 34.7 °F 39.2 °F 93% 30.02 in 12.0 mi East 10.4 mph - N/A Rain Light Rain Showers
1:00 AM 41.0 °F 35.2 °F 39.2 °F 93% 30.01 in 8.0 mi East 9.2 mph - N/A Rain Light Rain Showers
1:27 AM 41.0 °F 35.2 °F - N/A% - 8.0 mi ESE 9.2 mph - N/A   Overcast
2:00 AM 41.0 °F 36.4 °F 39.2 °F 93% 29.99 in 8.0 mi East 6.9 mph - N/A   Overcast
3:00 AM 42.8 °F 36.6 °F 37.4 °F 81% 29.98 in 8.0 mi SSE 11.5 mph - N/A   Overcast
3:29 AM 42.8 °F 38.6 °F - N/A% - 8.0 mi SE 6.9 mph - N/A Rain Light Rain Showers
4:00 AM 42 °F - 39 °F 84% 29.96 in 7 mi ESE 5.8 mph - - Rain Light Rain Showers
4:00 AM 41.0 °F 36.4 °F 39.2 °F 93% 29.96 in 8.0 mi ESE 6.9 mph - N/A Rain Light Rain Showers
4:14 AM 41.0 °F 39.0 °F - N/A% - 8.0 mi East 3.5 mph - N/A   Mostly Cloudy
5:00 AM 39.2 °F 37.0 °F 37.4 °F 93% 29.95 in 12.0 mi North 3.5 mph - N/A   Mostly Cloudy
6:00 AM 37.4 °F 34.9 °F 35.6 °F 93% 29.94 in 12.0 mi ESE 3.5 mph - N/A   Mostly Cloudy
7:00 AM 39.2 °F 35.9 °F 37.4 °F 93% 29.92 in 15.0 mi NE 4.6 mph - N/A   Mostly Cloudy
7:39 AM 41.0 °F - - N/A% - 15.0 mi NE 2.3 mph - N/A Rain Light Rain Showers
8:00 AM 39.2 °F 35.9 °F 37.4 °F 93% 29.92 in 15.0 mi ENE 4.6 mph - N/A Rain Light Rain Showers
9:00 AM 41.0 °F 35.2 °F 39.2 °F 93% 29.92 in 15.0 mi SW 9.2 mph 17.3 mph N/A   Mostly Cloudy
9:52 AM 42.8 °F 35.8 °F - N/A% - 15.0 mi WSW 13.8 mph - N/A Rain Light Rain Showers
10:00 AM 43 °F - 38 °F 75% 29.93 in 15 mi West 15.0 mph - - Rain Light Rain Showers
10:00 AM 42.8 °F 35.8 °F 37.4 °F 81% 29.93 in 15.0 mi West 13.8 mph - N/A Rain Light Rain Showers
10:37 AM 44.6 °F 37.2 °F - N/A% - 15.0 mi West 17.3 mph - N/A   Mostly Cloudy
10:54 AM 42.8 °F 34.8 °F - N/A% - 15.0 mi WNW 17.3 mph - N/A Rain Light Rain Showers
11:00 AM 42.8 °F 35.1 °F 35.6 °F 76% 29.94 in 15.0 mi WNW 16.1 mph - N/A Rain Light Rain Showers
11:58 AM 39.2 °F 29.3 °F - N/A% - 7.0 mi NW 20.7 mph - N/A Rain Light Rain
12:00 PM 39.2 °F 29.6 °F 35.6 °F 87% 29.96 in 7.0 mi NW 19.6 mph 25.3 mph N/A Rain Light Rain
12:09 PM 37.4 °F 27.5 °F - N/A% - 6.0 mi NW 18.4 mph 27.6 mph N/A Rain Light Rain
12:13 PM 37.4 °F 27.5 °F - N/A% - 8.0 mi NW 18.4 mph 27.6 mph N/A Rain Light Rain
1:00 PM 41.0 °F 30.9 °F 35.6 °F 81% 29.96 in 15.0 mi WNW 24.2 mph 29.9 mph N/A   Scattered Clouds
2:00 PM 42.8 °F 32.3 °F 35.6 °F 76% 29.97 in 15.0 mi WNW 29.9 mph 35.7 mph N/A   Partly Cloudy
3:00 PM 42.8 °F 33.3 °F 33.8 °F 70% 29.99 in 15.0 mi WNW 24.2 mph 34.5 mph N/A   Partly Cloudy
4:00 PM 41 °F - 31 °F 56% 30.01 in 15 mi WNW 26.5 mph - -   Partly Cloudy
4:00 PM 41.0 °F 30.0 °F 30.2 °F 65% 30.01 in 15.0 mi WNW 28.8 mph - N/A   Partly Cloudy
5:00 PM 41.0 °F 30.9 °F 30.2 °F 65% 30.03 in 15.0 mi WNW 24.2 mph 29.9 mph N/A   Partly Cloudy
6:00 PM 41.0 °F 31.9 °F 32.0 °F 70% 30.06 in 15.0 mi WNW 19.6 mph - N/A   Partly Cloudy
7:00 PM 41.0 °F 32.2 °F 30.2 °F 65% 30.06 in 15.0 mi WNW 18.4 mph - N/A   Partly Cloudy
8:00 PM 39.2 °F 28.7 °F 30.2 °F 70% 30.06 in 15.0 mi WNW 23.0 mph 29.9 mph N/A   Scattered Clouds
9:00 PM 39.2 °F 29.8 °F 32.0 °F 75% 30.08 in 15.0 mi WNW 18.4 mph - N/A   Scattered Clouds
10:00 PM 39 °F - 31 °F 65% 30.09 in 15 mi WNW 18.4 mph - -   Partly Cloudy
10:00 PM 39.2 °F 29.6 °F 32.0 °F 75% 30.09 in 15.0 mi WNW 19.6 mph - N/A   Mostly Cloudy
11:00 PM 39.2 °F 31.6 °F 32.0 °F 75% 30.11 in 15.0 mi NW 12.7 mph 20.7 mph N/A   Mostly Cloudy